GFSFLT2_con_3kmhel_057.txt.gz
Helicity
103 106 290 426 176 113 105 50 136 91 100 78 105 107 109 107 109 100 99 119 126 98 91 50 25 24 5 -6 -22 -31 -63 -69
252 326 198 224 307 140 107 18 59 68 85 103 110 100 97 94 86 77 90 107 131 112 81 40 4 15 7 -9 -19 -29 -51 -46
317 269 357 290 171 193 56 90 74 129 126 105 113 101 94 79 64 68 81 104 152 128 123 100 37 17 12 9 -3 -43 -44 -46
325 295 260 226 224 240 67 142 35 134 139 119 131 105 88 77 61 70 71 75 86 114 106 79 26 5 14 17 -8 -25 -35 -38
288 213 138 137 161 77 142 192 95 132 168 143 138 146 129 114 60 33 22 66 46 80 87 60 42 18 25 13 1 -10 -29 -44
262 241 284 153 237 99 85 65 56 84 86 124 136 156 75 24 29 2 7 19 67 53 52 58 56 40 32 29 14 1 -12 -22
258 203 148 164 158 126 22 47 -13 129 102 108 129 118 97 22 23 9 20 5 68 42 34 46 44 41 36 33 16 2 -2 -9
232 209 138 162 143 104 93 39 13 20 138 125 99 118 101 54 45 22 8 18 46 32 25 25 32 43 39 23 12 13 17 16
120 127 94 103 203 193 163 30 11 63 145 6 49 113 38 142 30 5 -7 63 60 45 49 49 43 46 45 32 33 32 31 29
154 187 157 175 282 143 153 110 111 157 124 71 112 92 85 69 39 15 59 68 58 42 45 54 45 37 39 35 43 56 50 41
197 161 155 207 247 281 276 322 200 199 234 244 178 140 177 62 31 66 67 78 52 46 63 79 75 52 43 46 58 65 79 87
182 200 292 334 436 368 353 357 344 338 424 431 124 118 73 100 93 98 80 74 54 46 89 99 82 94 81 68 71 65 90 110
125 121 181 272 261 311 193 188 395 516 378 187 83 74 180 110 91 94 77 88 60 93 128 118 121 136 127 105 94 99 123 135
69 108 140 173 126 72 170 200 312 455 280 102 69 80 72 43 48 63 78 99 98 122 154 167 136 167 161 154 127 150 161 155
110 115 92 -15 -1 -0 50 50 165 123 105 -156 -92 -22 7 25 6 85 85 115 116 130 145 155 175 175 214 204 179 162 176 210
53 50 60 11 -18 -70 -74 9 20 -12 -70 -136 -118 -71 -54 -36 -3 78 107 122 127 136 170 197 221 210 238 233 305 303 192 251
15 -7 7 -0 -53 -59 -53 -67 -34 -76 -102 -132 -152 -173 -133 -98 -66 -25 83 137 132 146 181 206 242 228 282 300 284 326 363 412
-8 2 -28 -9 -38 -29 -68 -129 -175 -192 -185 -222 -218 -186 -133 -99 -82 -52 -4 65 203 151 152 201 162 136 185 265 311 332 386 314
8 -7 -21 -6 9 7 -25 -97 -193 -183 -151 -146 -146 -151 -133 -85 -78 -35 29 100 166 252 137 184 210 179 220 236 350 384 274 247
92 52 -3 -21 1 6 -7 -64 -107 -114 -107 -74 -125 -124 -93 -92 -39 26 82 191 209 165 145 159 202 229 252 316 357 266 280 339

GFSFLT2_con_3kmhel_063.txt.gz
Helicity
158 237 248 249 133 69 133 218 260 301 218 177 209 197 155 114 89 76 62 65 64 55 40 13 21 25 20 9 9 -3 2 -5
137 111 155 155 195 178 203 297 252 219 243 207 257 218 167 115 86 67 59 56 65 31 20 16 21 12 4 4 7 -3 9 3
121 170 241 251 241 281 417 395 320 271 248 235 273 221 155 91 77 71 62 70 50 24 21 36 30 16 7 4 -15 -3 -7 -12
117 210 331 421 443 414 411 356 285 309 233 208 233 208 188 98 74 89 62 37 19 22 31 40 11 1 1 3 5 2 -6 -8
239 288 680 506 519 502 414 208 134 64 133 243 207 212 192 144 92 70 43 38 8 25 31 3 2 -4 -8 1 11 -1 -3 -6
343 304 202 259 198 135 194 228 170 219 203 186 181 205 171 160 104 71 58 19 16 -11 -4 -3 14 11 1 18 18 4 -10 -15
77 67 58 105 196 190 183 170 222 213 110 149 173 188 170 108 100 68 58 26 31 15 2 24 27 24 12 23 19 11 -6 -19
-4 -13 52 48 30 117 170 204 216 199 154 118 133 184 126 90 94 64 57 32 17 10 37 34 19 36 28 33 30 16 -2 -18
166 76 74 109 116 43 59 181 112 140 48 79 104 96 98 94 63 32 17 38 28 42 43 44 43 39 39 34 26 18 12 -2
136 170 159 152 127 136 130 180 200 121 199 103 113 108 120 70 56 22 3 96 52 48 36 45 40 31 35 44 25 23 19 10
124 171 161 198 189 129 169 153 155 71 162 234 104 78 55 66 63 53 47 97 65 35 37 60 46 31 26 34 34 30 21 25
145 109 130 144 199 74 138 124 102 143 21 -54 -23 8 55 63 50 66 72 82 71 48 50 49 41 39 38 41 41 36 38 36
67 141 127 142 189 177 145 123 -73 -7 49 -43 -4 57 51 74 92 84 61 57 57 64 63 45 69 68 74 56 47 38 35 48
43 84 137 138 157 101 171 108 -64 47 5 107 78 63 114 87 78 91 61 27 57 62 71 79 63 96 83 83 52 43 53 75
59 82 87 182 149 260 285 220 206 130 74 142 214 53 67 96 78 106 64 59 85 56 44 23 74 103 111 86 50 31 52 68
133 78 90 116 190 227 101 198 222 133 183 194 149 66 109 133 163 176 57 69 68 62 44 60 105 101 126 125 139 145 81 59
124 136 134 78 98 70 126 147 113 176 228 176 131 137 138 225 243 94 37 49 70 52 83 81 91 138 149 185 142 152 169 187
99 131 116 133 112 68 39 35 38 92 140 78 5 -7 48 236 205 82 53 59 45 53 53 73 101 134 167 162 166 176 145 188
79 114 85 72 60 70 29 31 7 23 52 14 -54 7 36 7 99 53 43 33 33 43 53 81 112 153 143 143 151 134 122 183
91 88 73 73 62 41 18 3 -5 -54 -32 -59 -20 -6 39 80 38 3 -11 9 16 16 34 51 80 193 166 252 175 127 160 178

GFSFLT2_con_3kmhel_066.txt.gz
Helicity
97 101 99 49 2 82 214 246 232 240 261 251 208 165 175 162 152 139 132 99 80 51 41 52 50 46 48 15 -11 16 33 24
109 124 110 55 9 107 93 142 201 278 276 274 214 203 200 195 174 135 117 97 49 29 55 52 50 41 33 24 4 -2 30 18
71 119 164 166 158 147 179 124 203 251 267 224 234 133 177 117 133 109 100 57 49 57 64 61 54 29 28 -12 -18 37 27 27
107 167 175 204 205 228 230 223 299 234 227 161 197 108 160 118 136 95 79 62 44 56 48 40 2 28 25 4 24 28 30 26
20 63 176 253 300 406 353 384 268 266 313 225 199 108 169 139 139 82 54 43 33 42 24 -4 13 15 5 36 32 23 26 24
3 -5 63 202 397 402 639 570 394 373 124 249 240 153 174 159 124 61 44 3 41 26 3 40 13 17 14 40 25 31 23 21
77 170 264 332 390 602 537 463 484 495 393 175 83 146 179 177 134 77 38 6 14 13 26 24 27 27 32 34 39 43 32 21
69 104 144 164 375 293 373 335 251 217 152 127 58 121 146 158 110 76 47 4 13 9 23 24 27 42 43 33 37 31 28 19
24 -7 36 126 128 120 175 282 229 200 61 79 54 145 117 74 92 63 38 34 24 18 17 19 31 50 51 31 41 37 32 23
82 35 57 72 98 140 120 225 289 313 168 99 66 69 87 86 106 88 52 60 14 14 19 21 34 47 51 46 43 38 35 25
70 77 78 104 113 119 133 163 263 212 221 88 54 69 70 102 115 62 53 28 3 26 58 21 30 39 45 48 44 37 32 30
84 83 113 113 70 105 147 147 146 138 157 77 29 80 15 40 50 60 39 26 20 56 54 31 22 30 39 47 45 43 42 35
32 97 101 68 118 138 147 114 77 76 89 119 57 74 65 6 31 57 38 11 32 38 73 49 41 35 54 50 44 36 29 34
54 59 54 49 75 55 57 74 91 2 78 71 149 92 43 44 32 51 3 16 47 24 57 65 51 53 32 36 38 40 41 48
73 60 69 64 78 106 134 132 161 96 0 114 92 -66 55 29 65 65 42 43 57 34 34 48 38 55 30 35 44 35 60 53
82 84 145 135 106 167 85 211 105 69 77 -66 -71 -27 67 56 60 67 65 87 93 58 30 18 40 58 38 27 43 70 70 54
80 117 137 123 97 152 138 178 112 115 138 131 7 81 76 111 88 94 76 108 113 73 53 43 64 60 48 61 61 80 74 83
76 110 157 172 166 96 78 22 101 132 220 225 191 159 190 174 100 143 103 104 110 100 46 33 40 37 57 64 84 102 108 84
53 68 115 162 159 102 84 27 54 62 106 111 102 138 96 61 0 40 160 161 85 61 52 72 43 33 51 86 108 135 183 155
62 63 67 104 119 88 73 65 103 59 79 92 157 186 182 110 14 116 136 173 142 1 25 40 18 42 44 69 124 204 286 230

GFSFLT2_con_3kmhel_072.txt.gz
Helicity
121 120 161 203 263 371 201 133 -65 30 134 199 187 183 175 155 172 157 139 124 100 99 110 71 65 28 44 70 115 151 86 62
69 108 133 232 291 275 241 90 38 181 115 228 192 191 179 172 174 160 122 114 107 95 103 96 43 32 53 88 177 76 36 66
100 95 122 157 206 216 145 66 20 109 214 252 195 179 173 140 138 141 113 108 110 85 111 72 51 24 46 84 59 29 105 82
127 80 90 99 138 151 190 168 -45 56 189 226 184 180 138 120 131 148 116 113 101 106 94 70 76 16 70 80 130 120 70 56
82 40 12 57 87 132 128 169 93 17 124 145 179 158 190 194 160 163 139 120 116 117 81 77 65 48 62 116 86 92 59 49
46 29 -4 32 148 169 205 189 136 173 166 226 211 259 219 214 139 142 126 123 114 65 27 61 31 74 85 59 18 117 85 69
100 62 74 114 129 191 240 253 264 282 308 332 284 318 263 176 134 153 103 116 90 35 26 74 54 68 54 79 10 121 60 41
143 109 79 120 169 173 248 341 367 508 241 268 366 297 311 141 120 127 107 92 78 54 61 95 57 64 63 80 74 77 35 47
132 105 74 120 128 194 253 308 404 461 356 302 315 332 337 102 79 55 68 66 60 54 94 81 76 61 61 84 85 65 43 86
137 147 82 133 84 149 309 481 514 349 315 261 213 208 118 84 -13 24 -15 54 57 112 106 86 68 54 64 67 68 69 115 61
201 98 54 83 115 214 240 304 285 281 305 288 206 104 73 7 46 -22 43 72 96 150 101 70 70 64 83 62 74 77 75 74
233 52 49 66 86 74 252 275 275 361 270 270 234 155 68 117 -28 38 58 45 163 121 92 67 68 66 54 96 83 67 73 52
141 44 51 42 72 53 69 104 186 252 313 255 132 141 54 143 103 95 150 155 143 104 110 67 83 84 120 128 76 63 65 50
72 8 57 37 46 56 39 75 72 194 174 169 148 74 151 48 91 114 183 171 124 108 113 128 120 72 88 132 86 62 21 31
97 62 81 66 49 70 74 114 196 163 123 109 86 113 198 90 57 75 82 78 86 93 175 154 97 63 60 132 122 47 57 29
108 110 95 73 70 146 158 142 203 150 194 90 61 155 185 55 -0 68 47 36 37 106 194 88 68 64 68 20 49 86 80 72
129 153 114 72 82 142 140 120 117 110 95 134 171 215 78 28 28 28 59 78 110 156 97 24 16 124 140 79 46 -22 -5 88
153 138 161 118 125 138 107 129 108 121 149 141 124 131 101 51 105 12 96 104 150 129 121 -19 93 148 117 84 107 70 61 96
131 135 139 167 177 148 120 100 120 137 171 153 135 120 109 128 136 93 122 166 186 140 115 131 135 188 153 112 18 93 106 88
133 130 122 154 191 184 137 51 44 109 158 135 156 144 156 147 197 132 128 197 149 149 177 154 196 217 174 166 61 94 137 123

GFSFLT2_con_3kmhel_075.txt.gz
Helicity
147 165 161 147 221 273 304 251 274 48 76 61 60 140 130 113 126 155 137 99 56 56 65 63 102 145 161 213 145 106 78 91
152 158 203 227 248 271 183 158 327 247 83 160 68 142 161 168 167 155 136 89 62 73 62 70 92 141 186 217 112 84 67 106
98 204 187 199 207 220 161 113 104 127 65 4 89 175 216 197 157 161 119 85 74 70 62 59 84 154 196 164 90 69 68 55
152 165 213 145 150 169 227 148 105 170 122 148 95 207 203 190 153 137 122 92 78 81 66 61 133 144 142 193 105 102 63 52
173 130 94 175 107 149 181 158 173 100 73 135 173 274 215 208 173 164 133 98 120 121 98 101 120 118 154 181 110 96 55 61
168 121 107 66 151 129 144 169 137 10 161 305 306 296 232 219 176 162 134 166 148 108 108 86 99 149 153 149 91 62 47 76
190 159 120 93 119 148 129 132 114 50 52 236 265 271 234 196 162 158 139 99 94 89 107 87 126 137 131 127 105 63 61 74
156 138 97 93 87 181 181 182 157 131 240 351 305 239 225 219 242 128 99 76 25 64 119 108 112 108 103 125 124 61 51 76
163 134 111 88 104 180 230 259 276 280 246 228 234 181 230 213 219 110 69 16 17 37 96 75 100 67 145 121 94 23 43 61
169 130 148 88 111 143 231 252 269 272 341 284 244 245 217 224 160 125 96 20 11 57 54 95 114 85 146 135 94 93 61 51
209 146 140 81 109 127 137 222 261 314 357 321 301 260 202 258 235 169 70 19 46 48 103 130 99 80 97 125 135 119 76 67
229 176 64 81 124 81 226 245 250 413 334 344 296 203 174 207 121 145 46 43 27 69 96 123 77 62 66 87 92 102 85 85
237 139 16 44 97 111 108 142 278 245 245 172 149 158 117 86 68 91 18 41 75 75 94 85 86 100 114 115 96 73 75 87
190 81 21 72 29 10 76 104 159 179 151 201 148 150 107 81 103 123 58 70 56 26 135 157 108 104 124 148 133 103 68 44
135 75 45 57 70 67 37 6 96 182 174 168 103 91 113 82 148 114 34 92 2 21 130 100 149 142 206 172 196 93 91 83
119 130 113 79 79 80 104 42 90 35 72 55 87 16 81 85 163 144 102 41 40 156 154 107 176 259 244 215 125 86 116 89
118 170 174 132 114 89 128 113 67 64 74 55 -1 -3 -17 70 155 100 89 93 99 117 98 79 116 177 240 183 106 69 84 95
148 152 168 158 184 146 141 107 114 99 65 56 39 42 65 89 62 4 -22 59 49 40 69 82 128 197 190 131 85 88 97 118
167 170 177 183 217 195 160 124 132 123 100 72 110 46 105 119 154 140 145 95 108 103 108 99 172 256 233 87 92 93 105 96
162 162 176 206 223 216 171 166 112 84 112 97 118 135 128 135 180 228 166 135 110 135 175 211 286 280 123 37 127 155 172 140

GFSFLT2_con_3kmhel_078.txt.gz
Helicity
179 170 130 119 123 166 307 338 391 412 270 199 141 88 53 117 142 141 127 97 71 107 134 168 196 176 153 134 134 151 128 106
154 192 197 176 148 221 302 280 256 298 262 83 -95 63 61 89 137 128 99 82 73 105 137 184 189 129 133 111 102 126 123 101
150 174 193 226 238 257 281 256 198 201 204 183 48 120 24 104 137 117 90 92 80 98 141 206 192 178 154 111 94 64 105 88
133 185 252 292 232 197 193 157 151 169 206 278 56 53 40 148 133 108 110 142 69 81 145 199 211 198 143 115 75 65 80 58
133 168 219 258 227 224 186 153 185 199 207 121 131 79 161 175 165 146 95 113 98 90 140 212 219 194 103 103 51 53 49 51
160 176 203 231 227 196 139 153 158 140 178 142 204 215 214 186 180 168 132 67 93 88 119 198 198 146 137 111 79 61 55 70
188 156 177 210 224 158 120 160 142 114 89 223 272 287 222 172 152 188 141 146 111 85 102 176 204 136 111 109 103 57 65 77
165 135 150 183 166 163 151 141 154 111 76 122 147 249 224 176 146 142 141 137 116 105 141 152 203 175 136 101 88 53 69 84
175 144 137 167 170 132 176 137 175 146 140 202 255 194 187 162 154 125 125 94 115 147 153 176 192 160 141 120 100 56 58 82
187 178 168 179 153 112 152 208 173 137 183 159 125 179 166 149 147 163 176 109 95 74 142 138 148 172 149 118 108 57 45 65
207 220 190 162 98 115 149 255 187 184 179 235 182 159 111 167 164 174 174 139 73 61 94 132 119 169 121 148 118 59 30 59
238 266 194 80 89 99 107 197 251 220 178 130 197 124 107 161 205 184 165 115 73 79 63 93 103 147 179 125 103 72 71 54
250 270 99 69 94 194 86 109 226 342 204 166 156 170 158 212 173 256 303 187 91 77 122 87 139 137 248 185 79 72 77 74
233 180 65 54 89 103 153 85 182 230 244 192 207 208 188 192 220 282 206 140 98 103 101 163 149 107 178 184 144 76 44 54
207 121 61 69 77 120 122 124 208 231 268 216 276 198 157 171 189 162 151 159 182 96 101 113 137 128 141 168 201 161 163 131
207 143 69 56 82 73 83 83 92 184 141 192 103 134 149 181 132 78 185 123 167 105 86 108 170 113 148 145 166 154 194 124
227 153 117 42 39 66 70 53 37 56 120 153 142 157 131 144 105 95 141 126 160 185 104 25 164 165 140 220 199 227 139 107
215 157 151 120 75 48 79 80 58 74 93 72 132 109 82 140 106 85 142 198 181 93 -47 -70 100 149 191 211 211 294 219 147
191 142 160 180 142 102 52 59 66 75 79 79 81 44 76 47 98 98 181 142 100 12 -18 43 129 172 182 201 196 190 184 160
183 139 117 171 189 152 99 69 28 34 68 37 73 51 13 36 44 155 142 131 132 105 90 145 166 163 173 196 209 220 250 138

GFSFLT2_con_3kmhel_084.txt.gz
Helicity
129 118 93 117 163 211 279 308 377 374 342 335 323 239 323 67 129 70 47 122 152 182 222 184 184 170 161 160 157 153 142 160
157 163 142 116 157 279 369 402 424 423 449 477 452 515 314 148 186 58 158 137 180 213 203 160 147 145 151 140 145 171 182 168
183 198 152 138 224 260 332 345 395 401 448 477 558 280 177 245 167 210 52 104 214 219 187 146 150 144 140 147 179 177 193 164
186 193 161 158 222 240 306 373 423 439 452 443 403 220 105 64 123 124 55 111 239 232 196 154 158 160 142 153 164 164 147 101
190 200 163 184 222 219 281 348 356 336 364 386 333 219 184 125 191 213 104 143 258 237 202 179 168 163 160 142 150 143 108 84
208 210 188 199 210 245 217 284 336 285 293 240 252 200 170 178 153 140 94 179 275 246 219 182 171 168 141 128 132 119 87 70
239 237 218 222 215 238 220 246 275 259 280 219 207 184 210 228 253 213 186 232 307 268 195 187 170 164 135 109 97 100 86 74
274 244 247 244 231 225 225 240 249 234 222 159 171 205 189 234 338 269 234 216 269 222 202 187 153 149 127 102 76 79 86 83
305 250 234 238 233 222 218 225 241 206 168 145 132 156 221 261 315 219 192 238 280 236 213 194 217 147 121 110 100 87 78 80
301 270 226 217 236 242 220 220 224 178 156 151 138 137 148 217 198 178 203 238 284 234 208 173 199 125 146 115 104 114 96 89
287 263 230 229 240 240 204 176 188 160 161 145 152 151 116 183 186 191 229 261 274 240 231 220 199 158 139 134 110 104 88 87
297 255 230 224 279 257 199 148 118 134 135 126 99 177 196 278 216 192 222 214 249 254 213 248 201 160 158 166 132 112 92 88
300 264 216 229 264 213 171 140 131 134 159 141 150 118 216 351 187 167 186 188 251 299 283 242 258 256 262 236 172 118 92 82
304 230 197 209 181 155 147 193 148 136 120 219 301 325 372 149 110 120 171 213 218 266 263 347 294 203 234 252 189 162 105 63
296 211 175 176 163 155 147 208 143 70 104 282 217 224 230 152 134 134 161 184 201 251 259 305 321 212 180 210 257 162 144 114
262 198 172 165 159 142 113 106 82 75 204 242 203 198 160 110 138 156 184 190 164 180 235 303 370 269 258 266 225 155 181 172
239 198 177 183 144 113 96 107 63 71 208 321 178 169 145 158 160 141 179 182 150 167 220 220 293 295 305 259 237 202 195 177
224 205 171 170 152 115 86 116 102 101 137 236 205 198 178 141 165 158 154 119 110 167 177 174 221 227 224 225 259 240 194 166
208 200 167 156 136 130 91 79 75 81 114 232 223 249 263 187 154 180 143 138 133 187 151 111 124 181 188 198 217 206 194 174
194 178 156 132 121 123 87 72 67 80 79 98 237 294 193 212 227 184 132 132 130 86 127 95 146 161 143 170 206 189 205 208